Weather History for Warrenton, VA

Change the Weather History Date:

Thursday, May 30, 2013

  Actual Average (KHEF) Record (KHEF)
Temperature  
Mean Temperature 76 °F -  
Max Temperature 91 °F 73 °F 95 °F (2011)
Min Temperature 62 °F 52 °F 42 °F (2000)
Cooling Degree Days 12    
Growing Degree Days 26 (Base 50)    
Moisture  
Dew Point 71 °F    
Average Humidity 77    
Maximum Humidity 100    
Minimum Humidity 55    
Precipitation  
Precipitation 0.00 in - - ()
Sea Level Pressure  
Sea Level Pressure 30.16 in    
Wind  
Wind Speed 4 mph (South)    
Max Wind Speed 8 mph    
Max Gust Speed -    
Visibility 10 miles    
Events      
Averages and records for this station are not official NWS values.
T = Trace of Precipitation, MM = Missing Value Source: NWS Daily Summary

Daily Weather History Graph

Daily Weather History Graph

Search for Another Location

Airport:

Trip Planner

Search our weather history database for the weather conditions in past years. The results will help you decide how hot, cold, wet, or windy it might be!

Date:

Astronomy

May. 30, 2013 Rise Set
Actual Time 5:49 AM EDT 8:28 PM EDT
Civil Twilight 5:17 AM EDT 8:59 PM EDT
Nautical Twilight 4:39 AM EDT 9:38 PM EDT
Astronomical Twilight 3:55 AM EDT 10:21 PM EDT
Moon 12:30 AM EDT (5/30) 11:52 AM EDT (5/30)
Length of Visible Light 15h 41m
Length of Day
14h 39m
Waning Gibbous, 62% of the Moon is Illuminated
May 30
Waning Gibbous
May 31
Last Quarter
Jun 8
New
Jun 16
First Quarter
Jun 23
Full

Hourly Weather History & Observations

Time (EDT) Temp. Heat Index Dew Point Humidity Pressure Visibility Wind Dir Wind Speed Gust Speed Precip Events Conditions
12:15 AM 76.3 °F - 69.4 °F 79% 30.12 in 10.0 mi SSW 6.9 mph - N/A   Clear
12:35 AM 76.1 °F - 69.3 °F 79% 30.12 in 10.0 mi South 4.6 mph - N/A   Clear
12:55 AM 75.2 °F - 69.1 °F 81% 30.12 in 10.0 mi SSW 4.6 mph - N/A   Clear
1:15 AM 74.7 °F - 68.9 °F 82% 30.13 in 10.0 mi SSW 4.6 mph - N/A   Clear
1:35 AM 73.9 °F - 68.7 °F 84% 30.14 in 10.0 mi SSW 5.8 mph - N/A   Clear
1:55 AM 73.4 °F - 68.5 °F 85% 30.14 in 10.0 mi SSW 5.8 mph - N/A   Clear
2:15 AM 72.9 °F - 68.4 °F 86% 30.14 in 10.0 mi SSW 4.6 mph - N/A   Clear
2:35 AM 72.5 °F - 68.2 °F 86% 30.15 in 10.0 mi SSW 4.6 mph - N/A   Clear
2:55 AM 71.6 °F - 68.0 °F 88% 30.14 in 10.0 mi SSW 3.5 mph - N/A   Clear
3:15 AM 70.9 °F - 67.8 °F 90% 30.14 in 10.0 mi SSW 3.5 mph - N/A   Clear
3:35 AM 70.7 °F - 67.6 °F 90% 30.14 in 10.0 mi SSW 3.5 mph - N/A   Clear
3:55 AM 70.5 °F - 67.5 °F 90% 30.14 in 10.0 mi Calm Calm - N/A   Clear
4:15 AM 69.4 °F - 67.3 °F 93% 30.15 in 10.0 mi Calm Calm - N/A   Clear
4:35 AM 66.0 °F - 65.8 °F 99% 30.15 in 10.0 mi Calm Calm - N/A   Clear
4:55 AM 66.2 °F - 66.2 °F 100% 30.16 in 10.0 mi Calm Calm - N/A   Clear
5:15 AM 65.1 °F - 65.1 °F 100% 30.16 in 10.0 mi Calm Calm - N/A   Clear
5:35 AM 63.7 °F - 63.7 °F 100% 30.16 in 10.0 mi Calm Calm - N/A   Clear
5:55 AM 62.4 °F - 62.4 °F 100% 30.17 in 7.0 mi Calm Calm - N/A   Clear
6:15 AM 63.1 °F - 63.1 °F 100% 30.18 in 7.0 mi Calm Calm - N/A   Scattered Clouds
6:35 AM 64.6 °F - 64.6 °F 100% 30.18 in 10.0 mi Calm Calm - N/A   Clear
6:55 AM 66.7 °F - 66.7 °F 100% 30.19 in 10.0 mi Calm Calm - N/A   Clear
7:15 AM 67.1 °F - 67.1 °F 100% 30.19 in 10.0 mi Calm Calm - N/A   Clear
7:35 AM 70.9 °F - 69.8 °F 96% 30.19 in 10.0 mi Calm Calm - N/A   Clear
7:55 AM 73.4 °F - 69.6 °F 88% 30.19 in 10.0 mi SSW 3.5 mph - N/A   Clear
8:15 AM 74.7 °F - 69.8 °F 85% 30.19 in 10.0 mi SW 4.6 mph - N/A   Clear
8:35 AM 76.1 °F - 70.7 °F 83% 30.19 in 10.0 mi SSW 4.6 mph - N/A   Clear
8:55 AM 77.7 °F - 71.2 °F 80% 30.19 in 10.0 mi SW 3.5 mph - N/A   Clear
9:15 AM 79.5 °F - 71.8 °F 77% 30.20 in 10.0 mi WSW 3.5 mph - N/A   Clear
9:35 AM 80.4 °F 84.4 °F 72.0 °F 75% 30.20 in 10.0 mi SW 4.6 mph - N/A   Clear
9:55 AM 82.2 °F 87.8 °F 73.0 °F 74% 30.20 in 10.0 mi South 3.5 mph - N/A   Clear
10:15 AM 83.8 °F 90.4 °F 73.4 °F 71% 30.20 in 10.0 mi Calm Calm - N/A   Clear
10:35 AM 85.1 °F 92.2 °F 73.6 °F 68% 30.20 in 10.0 mi Calm Calm - N/A   Clear
10:55 AM 86.9 °F 95.4 °F 74.3 °F 66% 30.20 in 10.0 mi Calm Calm - N/A   Clear
11:15 AM 87.4 °F 95.8 °F 74.1 °F 64% 30.20 in 10.0 mi Calm Calm - N/A   Clear
11:35 AM 88.2 °F 96.9 °F 74.3 °F 63% 30.19 in 10.0 mi Calm Calm - N/A   Clear
11:55 AM 89.1 °F 96.5 °F 72.7 °F 58% 30.19 in 10.0 mi Calm Calm - N/A   Clear
12:15 PM 89.6 °F 98.2 °F 73.8 °F 59% 30.19 in 10.0 mi WNW 3.5 mph - N/A   Clear
12:35 PM 90.5 °F 100.3 °F 74.5 °F 59% 30.19 in 10.0 mi SSE 3.5 mph - N/A   Clear
12:55 PM 90.5 °F 99.7 °F 73.9 °F 58% 30.18 in 10.0 mi SSE 4.6 mph - N/A   Clear
1:15 PM 91.2 °F 102.7 °F 75.4 °F 60% 30.18 in 10.0 mi South 5.8 mph - N/A   Clear
1:35 PM 91.4 °F 101.3 °F 74.5 °F 57% 30.17 in 10.0 mi SW 4.6 mph - N/A   Clear
1:55 PM 91.9 °F 101.3 °F 73.9 °F 55% 30.16 in 10.0 mi SW 5.8 mph - N/A   Clear
2:15 PM 91.6 °F 104.3 °F 76.3 °F 61% 30.16 in 10.0 mi SSE 6.9 mph - N/A   Mostly Cloudy
2:35 PM 90.7 °F 103.8 °F 76.8 °F 64% 30.16 in 10.0 mi South 4.6 mph - N/A   Scattered Clouds
2:55 PM 89.1 °F 99.6 °F 75.6 °F 64% 30.15 in 10.0 mi SSE 3.5 mph - N/A   Scattered Clouds
3:15 PM 88.0 °F 98.0 °F 75.6 °F 66% 30.15 in 10.0 mi SSE 5.8 mph - N/A   Mostly Cloudy
3:35 PM 87.3 °F 96.3 °F 74.5 °F 66% 30.14 in 10.0 mi SE 5.8 mph - N/A   Overcast
3:55 PM 87.1 °F 96.3 °F 75.0 °F 67% 30.14 in 10.0 mi SSW 4.6 mph - N/A   Overcast
4:15 PM 86.9 °F 96.4 °F 75.2 °F 68% 30.15 in 10.0 mi SSW 4.6 mph - N/A   Scattered Clouds
4:35 PM 87.8 °F 99.1 °F 76.3 °F 69% 30.15 in 10.0 mi SW 4.6 mph - N/A   Clear
4:55 PM 89.8 °F 100.9 °F 75.6 °F 63% 30.15 in 10.0 mi SW 6.9 mph - N/A   Scattered Clouds
5:15 PM 89.6 °F 98.7 °F 73.9 °F 60% 30.14 in 10.0 mi SSW 4.6 mph - N/A   Clear
5:35 PM 89.6 °F 97.7 °F 73.0 °F 58% 30.14 in 10.0 mi SSW 6.9 mph - N/A   Clear
5:55 PM 89.4 °F 97.3 °F 73.0 °F 58% 30.14 in 10.0 mi SSW 8.1 mph - N/A   Clear
6:15 PM 88.7 °F 96.7 °F 73.0 °F 60% 30.14 in 10.0 mi South 6.9 mph - N/A   Clear
6:35 PM 87.8 °F 94.7 °F 72.5 °F 60% 30.13 in 10.0 mi South 3.5 mph - N/A   Clear
6:55 PM 87.1 °F 93.6 °F 72.3 °F 61% 30.13 in 10.0 mi SSE 4.6 mph - N/A   Clear
7:15 PM 86.2 °F 93.4 °F 73.0 °F 65% 30.14 in 10.0 mi SSE 4.6 mph - N/A   Clear
7:35 PM 85.1 °F 92.6 °F 73.8 °F 69% 30.14 in 10.0 mi SSE 4.6 mph - N/A   Clear
7:55 PM 83.1 °F 89.5 °F 73.6 °F 73% 30.14 in 10.0 mi SSE 3.5 mph - N/A   Clear
8:15 PM 81.5 °F 86.9 °F 73.8 °F 77% 30.14 in 10.0 mi SSE 3.5 mph - N/A   Clear
8:35 PM 80.2 °F 84.7 °F 73.4 °F 80% 30.14 in 10.0 mi SSE 4.6 mph - N/A   Clear
8:55 PM 79.3 °F - 72.7 °F 80% 30.13 in 10.0 mi South 3.5 mph - N/A   Clear
9:15 PM 78.3 °F - 72.1 °F 81% 30.13 in 10.0 mi South 3.5 mph - N/A   Clear
9:35 PM 78.1 °F - 71.6 °F 80% 30.14 in 10.0 mi South 3.5 mph - N/A   Clear
9:55 PM 77.5 °F - 71.1 °F 80% 30.14 in 10.0 mi South 3.5 mph - N/A   Clear
10:15 PM 77.2 °F - 70.9 °F 81% 30.15 in 10.0 mi South 3.5 mph - N/A   Clear
10:35 PM 76.8 °F - 70.7 °F 81% 30.15 in 10.0 mi South 3.5 mph - N/A   Clear
10:55 PM 76.5 °F - 70.3 °F 81% 30.15 in 10.0 mi South 3.5 mph - N/A   Clear
11:15 PM 75.7 °F - 70.2 °F 83% 30.15 in 10.0 mi South 3.5 mph - N/A   Clear
11:35 PM 75.4 °F - 70.0 °F 83% 30.15 in 10.0 mi Calm Calm - N/A   Clear
11:55 PM 74.3 °F - 69.8 °F 86% 30.15 in 10.0 mi SSW 3.5 mph - N/A   Clear